Tracking 19638 objects as of 20-May-2019
HD Live streaming from Space Station
objects crossing your sky now

LES 9

Track LES 9 now!
LES 9 is classified as:


NORAD ID: 8747
Int'l Code: 1976-023B
Perigee: 35,712.5 km
Apogee: 35,877.1 km
Inclination: 17.2 °
Period: 1,436.2 minutes
Semi major axis: 42165 km
RCS: 3.1777 m2 (large)
Launch date: March 15, 1976
Source: United States (US)
Launch site: AIR FORCE EASTERN TEST RANGE (AFETR)

Original purpose was "Air Force sponsored program in space communications"; nuclear-powered; circuits jam-resistant to operate in hostile environment.
aabbcc
Your satellite tracking list
Your tracking list is empty




NASA's NSSDC Master Catalog

Two Line Element Set (TLE):
1  8747U 76023B   19140.36421351 -.00000106  00000-0  00000+0 0  9991
2  8747  17.2339  71.5683 0019527 104.6051  87.5614  1.00267995103750
Source of the keplerian elements: AFSPC